Regional Weather Roundup
Issued by NWS Sioux Falls, SD

Home | Current Version | Previous Version | Text Only | Print | Product List | Glossary Off
Versions: 1 2 3 4 5 6 7 8 9 10 11 12 13 14 15 16 17 18 19 20 21 22 23 24 25 26 27 28 29 30 31 32 33 34 35 36 37 38 39 40 41 42 43 44 45 46 47 48 49 50

344
ASUS43 KFSD 131902
RWRFSD

WEATHER ROUNDUP FOR SE SOUTH DAKOTA/SW MINNESOTA/NW IOWA
NATIONAL WEATHER SERVICE SIOUX FALLS SD
100 PM CST SAT FEB 13 2016

NOTE: "FAIR" INDICATES FEW OR NO CLOUDS BELOW 12,000 FEET WITH NO
SIGNIFICANT WEATHER AND OR OBSTRUCTIONS TO VISIBILITY.


SDZ038>040-050-052>070-132000-
SOUTHEAST SOUTH DAKOTA

CITY           SKY/WX    TMP DP  RH WIND       PRES   REMARKS
BROOKINGS      CLOUDY     6  -3  66 SE16      30.34F WCI -12
CHAMBERLAIN    CLOUDY    23  12  62 S16G24    30.17F WCI  10
HURON          CLOUDY    11   1  64 SE23G35   30.28F WCI  -9
MADISON        CLOUDY     7   0  72 S18G24    30.32F WCI -12
MITCHELL       CLOUDY    12   4  70 SE28G33   30.31F WCI  -9
SIOUX FALLS    CLOUDY     7  -2  66 SE12      30.38F WCI  -8
WINNER         CLOUDY    28  16  60 S20G30    30.11F WCI  15
YANKTON        CLOUDY    10   1  67 SE20      30.38F WCI  -8
$$

MNZ071-072-080-081-089-090-097-098-132000-
SOUTHWEST MINNESOTA

CITY           SKY/WX    TMP DP  RH WIND       PRES   REMARKS
FAIRMONT       CLOUDY     7  -2  66 S12       30.49F WCI  -9
JACKSON        CLOUDY     7  -4  61 SE10      30.45F WCI  -8
LUVERNE        CLOUDY     9   0  66 SE10      30.43F WCI  -6
MARSHALL       CLOUDY     8  -1  66 S16       30.44F WCI -10
MONTEVIDEO     CLOUDY     9  -2  61 S13       30.47F WCI  -7
PIPESTONE      CLOUDY     7  -8  51 S13G18    30.36F WCI  -9
REDWOOD FALLS  CLOUDY     5  -3  69 SE14      30.49F WCI -12
TRACY          CLOUDY     8  -1  69 S12G18    30.44F WCI  -8
WINDOM         CLOUDY     7  -2  66 SE12      30.44F WCI  -9
WORTHINGTON    CLOUDY     3  -4  72 SE15      30.43F WCI -15
$$

IAZ001>003-012>014-020>022-031-032-NEZ013-014-SDZ071-132000-
NORTHWEST IOWA

CITY           SKY/WX    TMP DP  RH WIND       PRES   REMARKS
DENISON        CLOUDY    10   3  72 SE7       30.47F WCI   0
ESTHERVILLE    CLOUDY     5  -1  76 S14       30.48F WCI -12
SIOUX CITY     CLOUDY    12   1  61 SE15      30.45F WCI  -4
SPENCER        CLOUDY     5  -4  66 SE13      30.46F WCI -12
STORM LAKE     CLOUDY     5   0  78 SE13      30.45F WCI -12
$$

ABBREVIATIONS USED IN REMARKS
   TC - TEMPERATURE IN CELSIUS
  WCI - WIND CHILL INDEX
   HX - HEAT INDEX
  VSB - VISIBILITY





USA.gov is the U.S. government's official web portal to all federal, state and local government web resources and services.